FAM1069 MMCU-MMCU

Flight info

Callsign FAM1069
Flight time N/A
Altitude 6000
Route 302330N1075217W 302225N1073701W 300655N1061147W 284633N1055657W
Aircraft H60/L-SFG/C

Departure

Time 2026-04-20 03:45
Airport General Roberto Fierro Villalobos International Airport (MMCU)

Arrival

Time N/A
Airport General Roberto Fierro Villalobos International Airport (MMCU)
Time Latitude Longitude Altitude Speed Heading
2026-04-20 03:23 28.69973 -105.97176 4449 ft 0 kts 308°
2026-04-20 03:44 28.69984 -105.97186 4465 ft 3 kts 301°
2026-04-20 03:44 28.69986 -105.97194 4534 ft 0 kts 298°
2026-04-20 03:44 28.69983 -105.97195 4974 ft 5 kts 298°
2026-04-20 03:45 28.70066 -105.97364 5313 ft 54 kts 299°
2026-04-20 03:45 28.70334 -105.97938 5557 ft 103 kts 303°
2026-04-20 03:45 28.70447 -105.98834 5759 ft 127 kts 278°
2026-04-20 03:45 28.70186 -105.99811 5767 ft 130 kts 250°
2026-04-20 03:46 28.70056 -106.00185 5956 ft 115 kts 253°
2026-04-20 03:46 28.69879 -106.00885 6693 ft 84 kts 255°
2026-04-20 03:46 28.69788 -106.01335 7345 ft 65 kts 254°
2026-04-20 03:46 28.69734 -106.01658 7530 ft 55 kts 254°
2026-04-20 03:47 28.69361 -106.02065 7079 ft 69 kts 130°
2026-04-20 03:47 28.69114 -106.02024 7106 ft 48 kts 124°
2026-04-20 03:47 28.68916 -106.01704 7087 ft 54 kts 123°
2026-04-20 03:47 28.68793 -106.01427 7064 ft 24 kts 123°
2026-04-20 03:48 28.68644 -106.01131 7028 ft 59 kts 123°
2026-04-20 03:48 28.68462 -106.00682 6988 ft 65 kts 124°
2026-04-20 03:48 28.68338 -106.00178 6980 ft 77 kts 119°
2026-04-20 03:48 28.68311 -105.99498 6998 ft 84 kts 98°
2026-04-20 03:49 28.68330 -105.98838 7260 ft 81 kts 94°
2026-04-20 03:49 28.68351 -105.98492 7474 ft 3 kts 96°
2026-04-20 03:49 28.68373 -105.98495 7916 ft 7 kts 96°
2026-04-20 03:49 28.68412 -105.98480 7961 ft 6 kts 96°
2026-04-20 03:50 28.68408 -105.98345 7728 ft 31 kts 96°
2026-04-20 03:50 28.68373 -105.97995 7732 ft 66 kts 97°
2026-04-20 03:50 28.68213 -105.97305 7738 ft 112 kts 114°
2026-04-20 03:50 28.67796 -105.96505 7752 ft 120 kts 129°
2026-04-20 03:51 28.67212 -105.95830 7769 ft 116 kts 141°
2026-04-20 03:51 28.66688 -105.95182 7765 ft 106 kts 135°
2026-04-20 03:51 28.66283 -105.94543 7829 ft 93 kts 131°
2026-04-20 03:51 28.65998 -105.93931 8030 ft 81 kts 127°
2026-04-20 03:52 28.65846 -105.93535 8455 ft 32 kts 126°
2026-04-20 03:52 28.65794 -105.93450 8478 ft 2 kts 126°
2026-04-20 03:52 28.65814 -105.93497 8348 ft 10 kts 126°
2026-04-20 03:52 28.65872 -105.93588 8171 ft 18 kts 126°
2026-04-20 03:53 28.65963 -105.93732 7978 ft 26 kts 126°
2026-04-20 03:53 28.66088 -105.93929 7758 ft 35 kts 126°
2026-04-20 03:53 28.66238 -105.94175 7573 ft 40 kts 126°
2026-04-20 03:53 28.66402 -105.94447 7478 ft 43 kts 126°
2026-04-20 03:54 28.66571 -105.94726 7365 ft 43 kts 126°
2026-04-20 03:54 28.66743 -105.95006 7258 ft 43 kts 126°
2026-04-20 03:54 28.66917 -105.95283 7135 ft 43 kts 126°
2026-04-20 03:54 28.67102 -105.95556 7011 ft 44 kts 126°
2026-04-20 03:55 28.67298 -105.95824 6898 ft 44 kts 126°
2026-04-20 03:55 28.67486 -105.96104 6824 ft 45 kts 126°
2026-04-20 03:55 28.67667 -105.96392 6770 ft 45 kts 126°
2026-04-20 03:55 28.67785 -105.96590 6779 ft 46 kts 126°